owner,sensor,date,latitude,longitude,air_temperature,qcFlag 
DISL,ioos:station:DISL:PPTA:1,2014-02-01T00:00:00Z,30.2791,-87.5561,9.77,1111122 
DISL,ioos:station:DISL:PPTA:1,2014-02-01T00:30:00Z,30.2791,-87.5561,9.91,1111122 
DISL,ioos:station:DISL:PPTA:1,2014-02-01T01:00:00Z,30.2791,-87.5561,10.18,1111122 
DISL,ioos:station:DISL:PPTA:1,2014-02-01T01:30:00Z,30.2791,-87.5561,10.27,1111122 
DISL,ioos:station:DISL:PPTA:1,2014-02-01T02:00:00Z,30.2791,-87.5561,10.89,1111122 
DISL,ioos:station:DISL:PPTA:1,2014-02-01T02:30:00Z,30.2791,-87.5561,10.99,1111122 
DISL,ioos:station:DISL:PPTA:1,2014-02-01T03:00:00Z,30.2791,-87.5561,11.85,1111122 
DISL,ioos:station:DISL:PPTA:1,2014-02-01T03:30:00Z,30.2791,-87.5561,10.98,1111122 
DISL,ioos:station:DISL:PPTA:1,2014-02-01T04:00:00Z,30.2791,-87.5561,10.23,1111122 
DISL,ioos:station:DISL:PPTA:1,2014-02-01T04:30:00Z,30.2791,-87.5561,10.13,1111122 
DISL,ioos:station:DISL:PPTA:1,2014-02-01T05:00:00Z,30.2791,-87.5561,10.2,1111122 
DISL,ioos:station:DISL:PPTA:1,2014-02-01T05:30:00Z,30.2791,-87.5561,9.86,1111122 
DISL,ioos:station:DISL:PPTA:1,2014-02-01T06:00:00Z,30.2791,-87.5561,10.17,1111122 
DISL,ioos:station:DISL:PPTA:1,2014-02-01T06:30:00Z,30.2791,-87.5561,9.79,1111122 
DISL,ioos:station:DISL:PPTA:1,2014-02-01T07:00:00Z,30.2791,-87.5561,9.32,1111122 
DISL,ioos:station:DISL:PPTA:1,2014-02-01T07:30:00Z,30.2791,-87.5561,9.05,1111122 
DISL,ioos:station:DISL:PPTA:1,2014-02-01T08:00:00Z,30.2791,-87.5561,8.85,1111122 
DISL,ioos:station:DISL:PPTA:1,2014-02-01T08:30:00Z,30.2791,-87.5561,8.88,1111122 
DISL,ioos:station:DISL:PPTA:1,2014-02-01T09:00:00Z,30.2791,-87.5561,8.81,1111122 
DISL,ioos:station:DISL:PPTA:1,2014-02-01T09:30:00Z,30.2791,-87.5561,8.64,1111122 
DISL,ioos:station:DISL:PPTA:1,2014-02-01T10:00:00Z,30.2791,-87.5561,8.68,1111122 
DISL,ioos:station:DISL:PPTA:1,2014-02-01T10:30:00Z,30.2791,-87.5561,8.37,1111122 
DISL,ioos:station:DISL:PPTA:1,2014-02-01T11:00:00Z,30.2791,-87.5561,8.51,1111122 
DISL,ioos:station:DISL:PPTA:1,2014-02-01T11:30:00Z,30.2791,-87.5561,8.75,1111122 
DISL,ioos:station:DISL:PPTA:1,2014-02-01T12:00:00Z,30.2791,-87.5561,8.85,1111122 
DISL,ioos:station:DISL:PPTA:1,2014-02-01T12:30:00Z,30.2791,-87.5561,8.44,1111122 
DISL,ioos:station:DISL:PPTA:1,2014-02-01T13:00:00Z,30.2791,-87.5561,8.41,1111122 
DISL,ioos:station:DISL:PPTA:1,2014-02-01T13:30:00Z,30.2791,-87.5561,8.89,1111122 
DISL,ioos:station:DISL:PPTA:1,2014-02-01T14:00:00Z,30.2791,-87.5561,9.19,1111122 
DISL,ioos:station:DISL:PPTA:1,2014-02-01T14:30:00Z,30.2791,-87.5561,10.92,1111122 
DISL,ioos:station:DISL:PPTA:1,2014-02-01T15:00:00Z,30.2791,-87.5561,10.56,1111122 
DISL,ioos:station:DISL:PPTA:1,2014-02-01T15:30:00Z,30.2791,-87.5561,11.85,1111122 
DISL,ioos:station:DISL:PPTA:1,2014-02-01T16:00:00Z,30.2791,-87.5561,12.69,1111122 
DISL,ioos:station:DISL:PPTA:1,2014-02-01T16:30:00Z,30.2791,-87.5561,14.19,1111122 
DISL,ioos:station:DISL:PPTA:1,2014-02-01T17:00:00Z,30.2791,-87.5561,14.66,1111122 
DISL,ioos:station:DISL:PPTA:1,2014-02-01T17:30:00Z,30.2791,-87.5561,14.54,1111122 
DISL,ioos:station:DISL:PPTA:1,2014-02-01T18:00:00Z,30.2791,-87.5561,14.95,1111122 
DISL,ioos:station:DISL:PPTA:1,2014-02-01T18:30:00Z,30.2791,-87.5561,15.74,1111122 
DISL,ioos:station:DISL:PPTA:1,2014-02-01T19:00:00Z,30.2791,-87.5561,15.98,1111122 
DISL,ioos:station:DISL:PPTA:1,2014-02-01T19:30:00Z,30.2791,-87.5561,15.91,1111122 
DISL,ioos:station:DISL:PPTA:1,2014-02-01T20:00:00Z,30.2791,-87.5561,15.46,1111122 
DISL,ioos:station:DISL:PPTA:1,2014-02-01T20:30:00Z,30.2791,-87.5561,15.94,1111122 
DISL,ioos:station:DISL:PPTA:1,2014-02-01T21:00:00Z,30.2791,-87.5561,15.67,1111122 
DISL,ioos:station:DISL:PPTA:1,2014-02-01T21:30:00Z,30.2791,-87.5561,15.19,1111122 
DISL,ioos:station:DISL:PPTA:1,2014-02-01T22:00:00Z,30.2791,-87.5561,16.16,1111122 
DISL,ioos:station:DISL:PPTA:1,2014-02-01T22:30:00Z,30.2791,-87.5561,16.2,1111122 
DISL,ioos:station:DISL:PPTA:1,2014-02-01T23:00:00Z,30.2791,-87.5561,15.89,1111122 
DISL,ioos:station:DISL:PPTA:1,2014-02-01T23:30:00Z,30.2791,-87.5561,16.0,1111122 
DISL,ioos:station:DISL:PPTA:1,2014-02-02T00:00:00Z,30.2791,-87.5561,15.24,1111122 
DISL,ioos:station:DISL:PPTA:1,2014-02-02T00:30:00Z,30.2791,-87.5561,14.19,1111122 
DISL,ioos:station:DISL:PPTA:1,2014-02-02T01:00:00Z,30.2791,-87.5561,13.58,1111122 
DISL,ioos:station:DISL:PPTA:1,2014-02-02T01:30:00Z,30.2791,-87.5561,14.24,1111122 
DISL,ioos:station:DISL:PPTA:1,2014-02-02T02:00:00Z,30.2791,-87.5561,14.1,1111122 
DISL,ioos:station:DISL:PPTA:1,2014-02-02T02:30:00Z,30.2791,-87.5561,13.69,1111122 
DISL,ioos:station:DISL:PPTA:1,2014-02-02T03:00:00Z,30.2791,-87.5561,12.94,1111122 
DISL,ioos:station:DISL:PPTA:1,2014-02-02T03:30:00Z,30.2791,-87.5561,12.71,1111122 
DISL,ioos:station:DISL:PPTA:1,2014-02-02T04:00:00Z,30.2791,-87.5561,14.04,1111122 
DISL,ioos:station:DISL:PPTA:1,2014-02-02T04:30:00Z,30.2791,-87.5561,13.97,1111122 
DISL,ioos:station:DISL:PPTA:1,2014-02-02T05:00:00Z,30.2791,-87.5561,13.66,1111122 
DISL,ioos:station:DISL:PPTA:1,2014-02-02T05:30:00Z,30.2791,-87.5561,13.79,1111122 
DISL,ioos:station:DISL:PPTA:1,2014-02-02T06:00:00Z,30.2791,-87.5561,14.92,1111122 
DISL,ioos:station:DISL:PPTA:1,2014-02-02T06:30:00Z,30.2791,-87.5561,14.96,1111122 
DISL,ioos:station:DISL:PPTA:1,2014-02-02T07:00:00Z,30.2791,-87.5561,14.5,1111122 
DISL,ioos:station:DISL:PPTA:1,2014-02-02T07:30:00Z,30.2791,-87.5561,15.77,1111122 
DISL,ioos:station:DISL:PPTA:1,2014-02-02T08:00:00Z,30.2791,-87.5561,15.11,1111122 
DISL,ioos:station:DISL:PPTA:1,2014-02-02T08:30:00Z,30.2791,-87.5561,14.7,1111122 
DISL,ioos:station:DISL:PPTA:1,2014-02-02T09:00:00Z,30.2791,-87.5561,14.5,1111122 
DISL,ioos:station:DISL:PPTA:1,2014-02-02T09:30:00Z,30.2791,-87.5561,14.1,1111122 
DISL,ioos:station:DISL:PPTA:1,2014-02-02T10:00:00Z,30.2791,-87.5561,15.94,1111122 
DISL,ioos:station:DISL:PPTA:1,2014-02-02T10:30:00Z,30.2791,-87.5561,15.29,1111122 
DISL,ioos:station:DISL:PPTA:1,2014-02-02T11:00:00Z,30.2791,-87.5561,14.74,1111122 
DISL,ioos:station:DISL:PPTA:1,2014-02-02T11:30:00Z,30.2791,-87.5561,14.54,1111122 
DISL,ioos:station:DISL:PPTA:1,2014-02-02T12:00:00Z,30.2791,-87.5561,13.82,1111122 
DISL,ioos:station:DISL:PPTA:1,2014-02-02T12:30:00Z,30.2791,-87.5561,14.13,1111122 
DISL,ioos:station:DISL:PPTA:1,2014-02-02T13:00:00Z,30.2791,-87.5561,14.03,1111122 
DISL,ioos:station:DISL:PPTA:1,2014-02-02T13:30:00Z,30.2791,-87.5561,14.37,1111122 
DISL,ioos:station:DISL:PPTA:1,2014-02-02T14:00:00Z,30.2791,-87.5561,14.33,1111122 
DISL,ioos:station:DISL:PPTA:1,2014-02-02T14:30:00Z,30.2791,-87.5561,14.26,1111122 
DISL,ioos:station:DISL:PPTA:1,2014-02-02T15:00:00Z,30.2791,-87.5561,14.61,1111122 
DISL,ioos:station:DISL:PPTA:1,2014-02-02T15:30:00Z,30.2791,-87.5561,14.63,1111122 
DISL,ioos:station:DISL:PPTA:1,2014-02-02T16:00:00Z,30.2791,-87.5561,15.04,1111122 
DISL,ioos:station:DISL:PPTA:1,2014-02-02T16:30:00Z,30.2791,-87.5561,15.55,1111122 
DISL,ioos:station:DISL:PPTA:1,2014-02-02T17:00:00Z,30.2791,-87.5561,15.55,1111122 
DISL,ioos:station:DISL:PPTA:1,2014-02-02T17:30:00Z,30.2791,-87.5561,15.68,1111122 
DISL,ioos:station:DISL:PPTA:1,2014-02-02T18:00:00Z,30.2791,-87.5561,16.05,1111122 
DISL,ioos:station:DISL:PPTA:1,2014-02-02T18:30:00Z,30.2791,-87.5561,16.08,1111122 
DISL,ioos:station:DISL:PPTA:1,2014-02-02T19:00:00Z,30.2791,-87.5561,16.08,1111122 
DISL,ioos:station:DISL:PPTA:1,2014-02-02T19:30:00Z,30.2791,-87.5561,15.64,1111122 
DISL,ioos:station:DISL:PPTA:1,2014-02-02T20:00:00Z,30.2791,-87.5561,16.08,1111122 
DISL,ioos:station:DISL:PPTA:1,2014-02-02T20:30:00Z,30.2791,-87.5561,16.05,1111122 
DISL,ioos:station:DISL:PPTA:1,2014-02-02T21:00:00Z,30.2791,-87.5561,16.01,1111122 
DISL,ioos:station:DISL:PPTA:1,2014-02-02T21:30:00Z,30.2791,-87.5561,16.08,1111122 
DISL,ioos:station:DISL:PPTA:1,2014-02-02T22:00:00Z,30.2791,-87.5561,16.46,1111122 
DISL,ioos:station:DISL:PPTA:1,2014-02-02T22:30:00Z,30.2791,-87.5561,16.7,1111122 
DISL,ioos:station:DISL:PPTA:1,2014-02-02T23:00:00Z,30.2791,-87.5561,16.8,1111122 
DISL,ioos:station:DISL:PPTA:1,2014-02-02T23:30:00Z,30.2791,-87.5561,16.9,1111122 
DISL,ioos:station:DISL:PPTA:1,2014-02-03T00:00:00Z,30.2791,-87.5561,16.8,1111122 
DISL,ioos:station:DISL:PPTA:1,2014-02-03T00:30:00Z,30.2791,-87.5561,16.32,1111122 
DISL,ioos:station:DISL:PPTA:1,2014-02-03T01:00:00Z,30.2791,-87.5561,16.59,1111122 
DISL,ioos:station:DISL:PPTA:1,2014-02-03T01:30:00Z,30.2791,-87.5561,16.45,1111122 
DISL,ioos:station:DISL:PPTA:1,2014-02-03T02:00:00Z,30.2791,-87.5561,16.66,1111122 
DISL,ioos:station:DISL:PPTA:1,2014-02-03T02:30:00Z,30.2791,-87.5561,16.9,1111122 
DISL,ioos:station:DISL:PPTA:1,2014-02-03T03:00:00Z,30.2791,-87.5561,15.6,1111122 
DISL,ioos:station:DISL:PPTA:1,2014-02-03T03:30:00Z,30.2791,-87.5561,15.51,1111122 
DISL,ioos:station:DISL:PPTA:1,2014-02-03T04:00:00Z,30.2791,-87.5561,15.58,1111122 
DISL,ioos:station:DISL:PPTA:1,2014-02-03T04:30:00Z,30.2791,-87.5561,15.55,1111122 
DISL,ioos:station:DISL:PPTA:1,2014-02-03T05:00:00Z,30.2791,-87.5561,15.65,1111122 
DISL,ioos:station:DISL:PPTA:1,2014-02-03T05:30:00Z,30.2791,-87.5561,15.52,1111122 
DISL,ioos:station:DISL:PPTA:1,2014-02-03T06:00:00Z,30.2791,-87.5561,15.83,1111122 
DISL,ioos:station:DISL:PPTA:1,2014-02-03T06:30:00Z,30.2791,-87.5561,15.62,1111122 
DISL,ioos:station:DISL:PPTA:1,2014-02-03T07:00:00Z,30.2791,-87.5561,15.45,1111122 
DISL,ioos:station:DISL:PPTA:1,2014-02-03T07:30:00Z,30.2791,-87.5561,15.24,1111122 
DISL,ioos:station:DISL:PPTA:1,2014-02-03T08:00:00Z,30.2791,-87.5561,15.76,1111122 
DISL,ioos:station:DISL:PPTA:1,2014-02-03T08:30:00Z,30.2791,-87.5561,15.35,1111122 
DISL,ioos:station:DISL:PPTA:1,2014-02-03T09:00:00Z,30.2791,-87.5561,15.42,1111122 
DISL,ioos:station:DISL:PPTA:1,2014-02-03T09:30:00Z,30.2791,-87.5561,15.89,1111122 
DISL,ioos:station:DISL:PPTA:1,2014-02-03T10:00:00Z,30.2791,-87.5561,15.58,1111122 
DISL,ioos:station:DISL:PPTA:1,2014-02-03T10:30:00Z,30.2791,-87.5561,15.28,1111122 
DISL,ioos:station:DISL:PPTA:1,2014-02-03T11:00:00Z,30.2791,-87.5561,16.41,1111122 
DISL,ioos:station:DISL:PPTA:1,2014-02-03T11:30:00Z,30.2791,-87.5561,17.39,1111122 
DISL,ioos:station:DISL:PPTA:1,2014-02-03T12:00:00Z,30.2791,-87.5561,17.62,1111122 
DISL,ioos:station:DISL:PPTA:1,2014-02-03T12:30:00Z,30.2791,-87.5561,17.17,1111122 
DISL,ioos:station:DISL:PPTA:1,2014-02-03T13:00:00Z,30.2791,-87.5561,17.14,1111122 
DISL,ioos:station:DISL:PPTA:1,2014-02-03T13:30:00Z,30.2791,-87.5561,16.86,1111122 
DISL,ioos:station:DISL:PPTA:1,2014-02-03T14:00:00Z,30.2791,-87.5561,16.32,1111122 
DISL,ioos:station:DISL:PPTA:1,2014-02-03T14:30:00Z,30.2791,-87.5561,15.53,1111122 
DISL,ioos:station:DISL:PPTA:1,2014-02-03T15:00:00Z,30.2791,-87.5561,14.51,1111122 
DISL,ioos:station:DISL:PPTA:1,2014-02-03T15:30:00Z,30.2791,-87.5561,12.78,1111122 
DISL,ioos:station:DISL:PPTA:1,2014-02-03T16:00:00Z,30.2791,-87.5561,11.84,1111122 
DISL,ioos:station:DISL:PPTA:1,2014-02-03T16:30:00Z,30.2791,-87.5561,11.5,1111122 
DISL,ioos:station:DISL:PPTA:1,2014-02-03T17:00:00Z,30.2791,-87.5561,11.85,1111122 
DISL,ioos:station:DISL:PPTA:1,2014-02-03T17:30:00Z,30.2791,-87.5561,12.53,1111122 
DISL,ioos:station:DISL:PPTA:1,2014-02-03T18:00:00Z,30.2791,-87.5561,12.97,1111122 
DISL,ioos:station:DISL:PPTA:1,2014-02-03T18:30:00Z,30.2791,-87.5561,12.87,1111122 
DISL,ioos:station:DISL:PPTA:1,2014-02-03T19:00:00Z,30.2791,-87.5561,12.73,1111122 
DISL,ioos:station:DISL:PPTA:1,2014-02-03T19:30:00Z,30.2791,-87.5561,12.94,1111122 
DISL,ioos:station:DISL:PPTA:1,2014-02-03T20:00:00Z,30.2791,-87.5561,12.77,1111122 
DISL,ioos:station:DISL:PPTA:1,2014-02-03T20:30:00Z,30.2791,-87.5561,12.46,1111122 
DISL,ioos:station:DISL:PPTA:1,2014-02-03T21:00:00Z,30.2791,-87.5561,12.46,1111122 
DISL,ioos:station:DISL:PPTA:1,2014-02-03T21:30:00Z,30.2791,-87.5561,12.26,1111122 
DISL,ioos:station:DISL:PPTA:1,2014-02-03T22:00:00Z,30.2791,-87.5561,11.81,1111122 
DISL,ioos:station:DISL:PPTA:1,2014-02-03T22:30:00Z,30.2791,-87.5561,11.14,1111122 
DISL,ioos:station:DISL:PPTA:1,2014-02-03T23:00:00Z,30.2791,-87.5561,10.73,1111122 
DISL,ioos:station:DISL:PPTA:1,2014-02-03T23:30:00Z,30.2791,-87.5561,10.36,1111122 
DISL,ioos:station:DISL:PPTA:1,2014-02-04T00:00:00Z,30.2791,-87.5561,9.98,1111122 
DISL,ioos:station:DISL:PPTA:1,2014-02-04T00:30:00Z,30.2791,-87.5561,9.82,1111122 
DISL,ioos:station:DISL:PPTA:1,2014-02-04T01:00:00Z,30.2791,-87.5561,9.76,1111122 
DISL,ioos:station:DISL:PPTA:1,2014-02-04T01:30:00Z,30.2791,-87.5561,9.56,1111122 
DISL,ioos:station:DISL:PPTA:1,2014-02-04T02:00:00Z,30.2791,-87.5561,9.66,1111122 
DISL,ioos:station:DISL:PPTA:1,2014-02-04T02:30:00Z,30.2791,-87.5561,9.73,1111122 
DISL,ioos:station:DISL:PPTA:1,2014-02-04T03:00:00Z,30.2791,-87.5561,9.59,1111122 
DISL,ioos:station:DISL:PPTA:1,2014-02-04T03:30:00Z,30.2791,-87.5561,9.56,1111122 
DISL,ioos:station:DISL:PPTA:1,2014-02-04T04:00:00Z,30.2791,-87.5561,9.42,1111122 
DISL,ioos:station:DISL:PPTA:1,2014-02-04T04:30:00Z,30.2791,-87.5561,9.32,1111122 
DISL,ioos:station:DISL:PPTA:1,2014-02-04T05:00:00Z,30.2791,-87.5561,9.18,1111122 
DISL,ioos:station:DISL:PPTA:1,2014-02-04T05:30:00Z,30.2791,-87.5561,8.97,1111122 
DISL,ioos:station:DISL:PPTA:1,2014-02-04T06:00:00Z,30.2791,-87.5561,8.91,1111122 
DISL,ioos:station:DISL:PPTA:1,2014-02-04T06:30:00Z,30.2791,-87.5561,8.8,1111122 
DISL,ioos:station:DISL:PPTA:1,2014-02-04T07:00:00Z,30.2791,-87.5561,8.81,1111122 
DISL,ioos:station:DISL:PPTA:1,2014-02-04T07:30:00Z,30.2791,-87.5561,8.95,1111122 
DISL,ioos:station:DISL:PPTA:1,2014-02-04T08:00:00Z,30.2791,-87.5561,8.81,1111122 
DISL,ioos:station:DISL:PPTA:1,2014-02-04T08:30:00Z,30.2791,-87.5561,8.67,1111122 
DISL,ioos:station:DISL:PPTA:1,2014-02-04T09:00:00Z,30.2791,-87.5561,8.67,1111122 
DISL,ioos:station:DISL:PPTA:1,2014-02-04T09:30:00Z,30.2791,-87.5561,9.08,1111122 
DISL,ioos:station:DISL:PPTA:1,2014-02-04T10:00:00Z,30.2791,-87.5561,8.85,1111122 
DISL,ioos:station:DISL:PPTA:1,2014-02-04T10:30:00Z,30.2791,-87.5561,8.98,1111122 
DISL,ioos:station:DISL:PPTA:1,2014-02-04T11:00:00Z,30.2791,-87.5561,9.08,1111122 
DISL,ioos:station:DISL:PPTA:1,2014-02-04T11:30:00Z,30.2791,-87.5561,9.26,1111122 
DISL,ioos:station:DISL:PPTA:1,2014-02-04T12:00:00Z,30.2791,-87.5561,9.56,1111122 
DISL,ioos:station:DISL:PPTA:1,2014-02-04T12:30:00Z,30.2791,-87.5561,9.73,1111122 
DISL,ioos:station:DISL:PPTA:1,2014-02-04T13:00:00Z,30.2791,-87.5561,10.21,1111122 
DISL,ioos:station:DISL:PPTA:1,2014-02-04T13:30:00Z,30.2791,-87.5561,10.44,1111122 
DISL,ioos:station:DISL:PPTA:1,2014-02-04T14:00:00Z,30.2791,-87.5561,11.13,1111122 
DISL,ioos:station:DISL:PPTA:1,2014-02-04T14:30:00Z,30.2791,-87.5561,11.22,1111122 
DISL,ioos:station:DISL:PPTA:1,2014-02-04T15:00:00Z,30.2791,-87.5561,11.59,1111122 
DISL,ioos:station:DISL:PPTA:1,2014-02-04T15:30:00Z,30.2791,-87.5561,12.27,1111122 
DISL,ioos:station:DISL:PPTA:1,2014-02-04T16:00:00Z,30.2791,-87.5561,12.81,1111122 
DISL,ioos:station:DISL:PPTA:1,2014-02-04T16:30:00Z,30.2791,-87.5561,13.49,1111122 
DISL,ioos:station:DISL:PPTA:1,2014-02-04T17:00:00Z,30.2791,-87.5561,13.73,1111122 
DISL,ioos:station:DISL:PPTA:1,2014-02-04T17:30:00Z,30.2791,-87.5561,13.9,1111122 
DISL,ioos:station:DISL:PPTA:1,2014-02-04T18:00:00Z,30.2791,-87.5561,14.54,1111122 
DISL,ioos:station:DISL:PPTA:1,2014-02-04T18:30:00Z,30.2791,-87.5561,15.02,1111122 
DISL,ioos:station:DISL:PPTA:1,2014-02-04T19:00:00Z,30.2791,-87.5561,16.54,1111122 
DISL,ioos:station:DISL:PPTA:1,2014-02-04T19:30:00Z,30.2791,-87.5561,17.49,1111122 
DISL,ioos:station:DISL:PPTA:1,2014-02-04T20:00:00Z,30.2791,-87.5561,17.65,1111122 
DISL,ioos:station:DISL:PPTA:1,2014-02-04T20:30:00Z,30.2791,-87.5561,18.42,1111122 
DISL,ioos:station:DISL:PPTA:1,2014-02-04T21:00:00Z,30.2791,-87.5561,18.59,1111122 
DISL,ioos:station:DISL:PPTA:1,2014-02-04T21:30:00Z,30.2791,-87.5561,18.55,1111122 
DISL,ioos:station:DISL:PPTA:1,2014-02-04T22:00:00Z,30.2791,-87.5561,18.03,1111122 
DISL,ioos:station:DISL:PPTA:1,2014-02-04T22:30:00Z,30.2791,-87.5561,17.66,1111122 
DISL,ioos:station:DISL:PPTA:1,2014-02-04T23:00:00Z,30.2791,-87.5561,17.29,1111122 
DISL,ioos:station:DISL:PPTA:1,2014-02-04T23:30:00Z,30.2791,-87.5561,17.13,1111122 
DISL,ioos:station:DISL:PPTA:1,2014-02-05T00:00:00Z,30.2791,-87.5561,17.0,1111122 
DISL,ioos:station:DISL:PPTA:1,2014-02-05T00:30:00Z,30.2791,-87.5561,17.04,1111122 
DISL,ioos:station:DISL:PPTA:1,2014-02-05T01:00:00Z,30.2791,-87.5561,17.14,1111122 
DISL,ioos:station:DISL:PPTA:1,2014-02-05T01:30:00Z,30.2791,-87.5561,17.0,1111122 
DISL,ioos:station:DISL:PPTA:1,2014-02-05T02:00:00Z,30.2791,-87.5561,16.66,1111122 
DISL,ioos:station:DISL:PPTA:1,2014-02-05T02:30:00Z,30.2791,-87.5561,16.39,1111122 
DISL,ioos:station:DISL:PPTA:1,2014-02-05T03:00:00Z,30.2791,-87.5561,16.45,1111122 
DISL,ioos:station:DISL:PPTA:1,2014-02-05T03:30:00Z,30.2791,-87.5561,16.11,1111122 
DISL,ioos:station:DISL:PPTA:1,2014-02-05T04:00:00Z,30.2791,-87.5561,16.01,1111122 
DISL,ioos:station:DISL:PPTA:1,2014-02-05T04:30:00Z,30.2791,-87.5561,16.49,1111122 
DISL,ioos:station:DISL:PPTA:1,2014-02-05T05:00:00Z,30.2791,-87.5561,16.42,1111122 
DISL,ioos:station:DISL:PPTA:1,2014-02-05T05:30:00Z,30.2791,-87.5561,16.39,1111122 
DISL,ioos:station:DISL:PPTA:1,2014-02-05T06:00:00Z,30.2791,-87.5561,16.36,1111122 
DISL,ioos:station:DISL:PPTA:1,2014-02-05T06:30:00Z,30.2791,-87.5561,16.39,1111122 
DISL,ioos:station:DISL:PPTA:1,2014-02-05T07:00:00Z,30.2791,-87.5561,16.43,1111122 
DISL,ioos:station:DISL:PPTA:1,2014-02-05T07:30:00Z,30.2791,-87.5561,16.8,1111122 
DISL,ioos:station:DISL:PPTA:1,2014-02-05T08:00:00Z,30.2791,-87.5561,17.55,1111122 
DISL,ioos:station:DISL:PPTA:1,2014-02-05T08:30:00Z,30.2791,-87.5561,17.82,1111122 
DISL,ioos:station:DISL:PPTA:1,2014-02-05T09:00:00Z,30.2791,-87.5561,17.55,1111122 
DISL,ioos:station:DISL:PPTA:1,2014-02-05T09:30:00Z,30.2791,-87.5561,17.45,1111122 
DISL,ioos:station:DISL:PPTA:1,2014-02-05T10:00:00Z,30.2791,-87.5561,17.0,1111122 
DISL,ioos:station:DISL:PPTA:1,2014-02-05T10:30:00Z,30.2791,-87.5561,16.73,1111122 
DISL,ioos:station:DISL:PPTA:1,2014-02-05T11:00:00Z,30.2791,-87.5561,16.56,1111122 
DISL,ioos:station:DISL:PPTA:1,2014-02-05T11:30:00Z,30.2791,-87.5561,16.11,1111122 
DISL,ioos:station:DISL:PPTA:1,2014-02-05T12:00:00Z,30.2791,-87.5561,15.03,1111122 
DISL,ioos:station:DISL:PPTA:1,2014-02-05T12:30:00Z,30.2791,-87.5561,14.29,1111122 
DISL,ioos:station:DISL:PPTA:1,2014-02-05T13:00:00Z,30.2791,-87.5561,13.23,1111122 
DISL,ioos:station:DISL:PPTA:1,2014-02-05T13:30:00Z,30.2791,-87.5561,12.76,1111122 
DISL,ioos:station:DISL:PPTA:1,2014-02-05T14:00:00Z,30.2791,-87.5561,12.7,1111122 
DISL,ioos:station:DISL:PPTA:1,2014-02-05T14:30:00Z,30.2791,-87.5561,12.26,1111122 
DISL,ioos:station:DISL:PPTA:1,2014-02-05T15:00:00Z,30.2791,-87.5561,11.78,1111122 
DISL,ioos:station:DISL:PPTA:1,2014-02-05T15:30:00Z,30.2791,-87.5561,11.34,1111122 
DISL,ioos:station:DISL:PPTA:1,2014-02-05T16:00:00Z,30.2791,-87.5561,10.97,1111122 
DISL,ioos:station:DISL:PPTA:1,2014-02-05T16:30:00Z,30.2791,-87.5561,11.17,1111122 
DISL,ioos:station:DISL:PPTA:1,2014-02-05T17:00:00Z,30.2791,-87.5561,11.47,1111122 
DISL,ioos:station:DISL:PPTA:1,2014-02-05T17:30:00Z,30.2791,-87.5561,12.08,1111122 
DISL,ioos:station:DISL:PPTA:1,2014-02-05T18:00:00Z,30.2791,-87.5561,12.72,1111122 
DISL,ioos:station:DISL:PPTA:1,2014-02-05T18:30:00Z,30.2791,-87.5561,13.09,1111122 
DISL,ioos:station:DISL:PPTA:1,2014-02-05T19:00:00Z,30.2791,-87.5561,13.16,1111122 
DISL,ioos:station:DISL:PPTA:1,2014-02-05T19:30:00Z,30.2791,-87.5561,13.23,1111122 
DISL,ioos:station:DISL:PPTA:1,2014-02-05T20:00:00Z,30.2791,-87.5561,13.37,1111122 
DISL,ioos:station:DISL:PPTA:1,2014-02-05T20:30:00Z,30.2791,-87.5561,12.9,1111122 
DISL,ioos:station:DISL:PPTA:1,2014-02-05T21:00:00Z,30.2791,-87.5561,12.77,1111122 
DISL,ioos:station:DISL:PPTA:1,2014-02-05T21:30:00Z,30.2791,-87.5561,12.5,1111122 
DISL,ioos:station:DISL:PPTA:1,2014-02-05T22:00:00Z,30.2791,-87.5561,12.47,1111122 
DISL,ioos:station:DISL:PPTA:1,2014-02-05T22:30:00Z,30.2791,-87.5561,12.2,1111122 
DISL,ioos:station:DISL:PPTA:1,2014-02-05T23:00:00Z,30.2791,-87.5561,11.86,1111122 
DISL,ioos:station:DISL:PPTA:1,2014-02-05T23:30:00Z,30.2791,-87.5561,11.28,1111122 
DISL,ioos:station:DISL:PPTA:1,2014-02-06T00:00:00Z,30.2791,-87.5561,10.56,1111122 
DISL,ioos:station:DISL:PPTA:1,2014-02-06T00:30:00Z,30.2791,-87.5561,9.58,1111122 
DISL,ioos:station:DISL:PPTA:1,2014-02-06T01:00:00Z,30.2791,-87.5561,8.29,1111122 
DISL,ioos:station:DISL:PPTA:1,2014-02-06T01:30:00Z,30.2791,-87.5561,6.894,1111122 
DISL,ioos:station:DISL:PPTA:1,2014-02-06T02:00:00Z,30.2791,-87.5561,6.389,1111122 
DISL,ioos:station:DISL:PPTA:1,2014-02-06T02:30:00Z,30.2791,-87.5561,5.989,1111122 
DISL,ioos:station:DISL:PPTA:1,2014-02-06T03:00:00Z,30.2791,-87.5561,5.755,1111122 
DISL,ioos:station:DISL:PPTA:1,2014-02-06T03:30:00Z,30.2791,-87.5561,5.38,1111122 
DISL,ioos:station:DISL:PPTA:1,2014-02-06T04:00:00Z,30.2791,-87.5561,5.21,1111122 
DISL,ioos:station:DISL:PPTA:1,2014-02-06T04:30:00Z,30.2791,-87.5561,5.011,1111122 
DISL,ioos:station:DISL:PPTA:1,2014-02-06T05:00:00Z,30.2791,-87.5561,4.943,1111122 
DISL,ioos:station:DISL:PPTA:1,2014-02-06T05:30:00Z,30.2791,-87.5561,4.669,1111122 
DISL,ioos:station:DISL:PPTA:1,2014-02-06T06:00:00Z,30.2791,-87.5561,4.43,1111122 
DISL,ioos:station:DISL:PPTA:1,2014-02-06T06:30:00Z,30.2791,-87.5561,4.094,1111122 
DISL,ioos:station:DISL:PPTA:1,2014-02-06T07:00:00Z,30.2791,-87.5561,3.718,1111122 
DISL,ioos:station:DISL:PPTA:1,2014-02-06T07:30:00Z,30.2791,-87.5561,3.688,1111122 
DISL,ioos:station:DISL:PPTA:1,2014-02-06T08:00:00Z,30.2791,-87.5561,3.485,1111122 
DISL,ioos:station:DISL:PPTA:1,2014-02-06T08:30:00Z,30.2791,-87.5561,3.143,1111122 
DISL,ioos:station:DISL:PPTA:1,2014-02-06T09:00:00Z,30.2791,-87.5561,3.109,1111122 
DISL,ioos:station:DISL:PPTA:1,2014-02-06T09:30:00Z,30.2791,-87.5561,2.904,1111122 
DISL,ioos:station:DISL:PPTA:1,2014-02-06T10:00:00Z,30.2791,-87.5561,2.63,1111122 
DISL,ioos:station:DISL:PPTA:1,2014-02-06T10:30:00Z,30.2791,-87.5561,2.391,1111122 
DISL,ioos:station:DISL:PPTA:1,2014-02-06T11:00:00Z,30.2791,-87.5561,2.495,1111122 
DISL,ioos:station:DISL:PPTA:1,2014-02-06T11:30:00Z,30.2791,-87.5561,2.496,1111122 
DISL,ioos:station:DISL:PPTA:1,2014-02-06T12:00:00Z,30.2791,-87.5561,2.397,1111122 
DISL,ioos:station:DISL:PPTA:1,2014-02-06T12:30:00Z,30.2791,-87.5561,2.5,1111122 
DISL,ioos:station:DISL:PPTA:1,2014-02-06T13:00:00Z,30.2791,-87.5561,2.192,1111122 
DISL,ioos:station:DISL:PPTA:1,2014-02-06T13:30:00Z,30.2791,-87.5561,2.26,1111122 
DISL,ioos:station:DISL:PPTA:1,2014-02-06T14:00:00Z,30.2791,-87.5561,2.466,1111122 
DISL,ioos:station:DISL:PPTA:1,2014-02-06T14:30:00Z,30.2791,-87.5561,2.603,1111122 
DISL,ioos:station:DISL:PPTA:1,2014-02-06T15:00:00Z,30.2791,-87.5561,2.872,1111122 
DISL,ioos:station:DISL:PPTA:1,2014-02-06T15:30:00Z,30.2791,-87.5561,2.869,1111122 
DISL,ioos:station:DISL:PPTA:1,2014-02-06T16:00:00Z,30.2791,-87.5561,3.006,1111122 
DISL,ioos:station:DISL:PPTA:1,2014-02-06T16:30:00Z,30.2791,-87.5561,3.143,1111122 
DISL,ioos:station:DISL:PPTA:1,2014-02-06T17:00:00Z,30.2791,-87.5561,3.246,1111122 
DISL,ioos:station:DISL:PPTA:1,2014-02-06T17:30:00Z,30.2791,-87.5561,3.315,1111122 
DISL,ioos:station:DISL:PPTA:1,2014-02-06T18:00:00Z,30.2791,-87.5561,3.275,1111122 
DISL,ioos:station:DISL:PPTA:1,2014-02-06T18:30:00Z,30.2791,-87.5561,3.376,1111122 
DISL,ioos:station:DISL:PPTA:1,2014-02-06T19:00:00Z,30.2791,-87.5561,3.102,1111122 
DISL,ioos:station:DISL:PPTA:1,2014-02-06T19:30:00Z,30.2791,-87.5561,2.971,1111122 
DISL,ioos:station:DISL:PPTA:1,2014-02-06T20:00:00Z,30.2791,-87.5561,3.212,1111122 
DISL,ioos:station:DISL:PPTA:1,2014-02-06T20:30:00Z,30.2791,-87.5561,3.349,1111122 
DISL,ioos:station:DISL:PPTA:1,2014-02-06T21:00:00Z,30.2791,-87.5561,3.69,1111122 
DISL,ioos:station:DISL:PPTA:1,2014-02-06T21:30:00Z,30.2791,-87.5561,3.718,1111122 
DISL,ioos:station:DISL:PPTA:1,2014-02-06T22:00:00Z,30.2791,-87.5561,4.026,1111122 
DISL,ioos:station:DISL:PPTA:1,2014-02-06T22:30:00Z,30.2791,-87.5561,3.718,1111122 
DISL,ioos:station:DISL:PPTA:1,2014-02-06T23:00:00Z,30.2791,-87.5561,3.005,1111122 
DISL,ioos:station:DISL:PPTA:1,2014-02-06T23:30:00Z,30.2791,-87.5561,3.041,1111122 
DISL,ioos:station:DISL:PPTA:1,2014-02-07T00:00:00Z,30.2791,-87.5561,3.075,1111122 